Regional Weather Roundup
Issued by NWS

Home | Current Version | Previous Version | Graphics & Text | Print | Product List | Glossary Off
Versions: 1 2 3 4 5 6 7 8 9 10 11 12 13 14 15 16 17 18 19 20 21 22 23 24 25 26 27 28 29 30 31 32 33 34 35 36 37 38 39 40 41 42 43 44 45 46 47 48 49 50

000
ASUS43 KMPX 250410
RWRMN
WEATHER ROUNDUP FOR MINNESOTA
NATIONAL WEATHER SERVICE TWIN CITIES/CHANHASSEN MN
1100 PM CDT SUN MAY 24 2015


NOTE: "FAIR" INDICATES FEW OR NO CLOUDS BELOW 12,000 FEET WITH NO
SIGNIFICANT WEATHER AND/OR OBSTRUCTIONS TO VISIBILITY. N/A MEANS
CURRENT SKY AND/OR WEATHER CONDITIONS ARE NOT AVAILABLE.

MNZ060>063-068>070-250500-
   Twin Cities Metro

CITY           SKY/WX    TMP DP  RH WIND       PRES   REMARKS
TWIN CITIES    LGT RAIN  58  57  97 E9        29.79F FOG
ST PAUL        CLOUDY    58  57  97 E8        29.81F
CRYSTAL        LGT RAIN  59  57  93 E6        29.79F FOG
BLAINE         DRIZZLE   61  59  94 E10       29.81F
LAKEVILLE      DRIZZLE   55  55 100 E8        29.79F
EDEN PRAIRIE   LGT RAIN  58  57  97 E8        29.78F FOG
SOUTH ST PAUL  CLOUDY    58  57  96 E6        29.80F FOG
LAKE ELMO      DRIZZLE   57  57 100 E8        29.82F
$$
MNZ001>005-007-008-013>017-022>024-027-028-250500-
   Northwest Minnesota

CITY           SKY/WX    TMP DP  RH WIND       PRES   REMARKS
BEMIDJI        CLOUDY    59  50  71 CALM      29.89F
HALLOCK        MOCLDY    63  52  67 CALM      29.87F
ROSEAU         CLOUDY    64  52  63 CALM      29.89F
WARROAD        CLOUDY    59  52  77 CALM      29.90F
THIEF RVR FALL CLOUDY    63  50  63 N6        29.89F
CROOKSTON      CLOUDY    64  48  55 CALM      29.88S
FOSSTON        CLOUDY    57  45  62 CALM      29.89F
DETROIT LAKES  DRIZZLE   59  54  82 E3        29.89F
MOORHEAD       DRIZZLE   63  55  77 SE5       29.87F
PARK RAPIDS    LGT RAIN  60  53  77 E3        29.89F
MAHNOMEN       FAIR      62  50  64 SE3       29.87F
$$
MNZ006-009>011-018-025>026-250500-
   North Central Minnesota

CITY           SKY/WX    TMP DP  RH WIND       PRES   REMARKS
BAUDETTE       CLOUDY    59  52  77 CALM      29.89F
FLAG ISLAND    MOCLDY    61  52  72 CALM      29.89F
INTL FALLS     CLOUDY    57  49  74 CALM      29.90S
WASKISH        CLOUDY    57  55  94 CALM      29.90F
BIG FORK       CLOUDY    57  52  82 CALM      29.91F
LONGVILLE      LGT RAIN  57  55  94 CALM      29.90S
GRAND RAPIDS   CLOUDY    57  52  82 E3        29.91F
CRANE LAKE     CLOUDY    55  48  76 CALM      29.92F
ORR            CLOUDY    59  48  67 CALM      29.89F
COOK           CLOUDY    59  52  77 CALM      29.92F
WALKER         DRIZZLE   59  52  76 CALM      29.89F
$$
MNZ012-019>021-037-250500-
   Northeast Minnesota

CITY           SKY/WX    TMP DP  RH WIND       PRES   REMARKS
DULUTH         LGT RAIN  59  55  87 E7        29.91F
ELY            CLOUDY    63  48  59 CALM      29.93S
HIBBING        CLOUDY    58  50  75 CALM      29.91F
EVELETH        CLOUDY    59  50  72 CALM      29.93F
DULUTH HARBOR  LGT RAIN  52  50  93 NE9       29.91F
TWO HARBORS    CLOUDY    61  54  77 CALM      29.91F
GRAND MARAIS     N/A     51  39  63 E3        29.93F
G MARAIS ARPRT CLOUDY    55  37  50 CALM      29.97F
$$
MNZ029>031-032-039>041-046>048-054>057-064-250500-
   West Central Minnesota

CITY           SKY/WX    TMP DP  RH WIND       PRES   REMARKS
FERGUS FALLS   DRIZZLE   57  55  94 E9        29.86F
WHEATON        DRIZZLE   55  55 100 NE6       29.85F
MORRIS         RAIN      59  57  94 NE7       29.82F
ALEXANDRIA     LGT RAIN  57  55  93 E13       29.85F
ELBOW LAKE     DRIZZLE   57  56  97 NE8       29.84F
WADENA         DRIZZLE   57  54  88 NE7       29.87F
GLENWOOD       CLOUDY    57  55  94 NE10      29.84F
APPLETON       DRIZZLE   59  55  88 NE8       29.81F
BENSON         LGT RAIN  57  55  94 E5        29.81F
ORTONVILLE     CLOUDY    57  55  94 E6        29.82F
MADISON        CLOUDY    57  55  94 NE9       29.81F
WILLMAR        RAIN      59  57  94 E7        29.81F
$$
MNZ033>034-036-042>043-049>051-058-059-250500-
   Central Minnesota

CITY           SKY/WX    TMP DP  RH WIND       PRES   REMARKS
ST CLOUD       LGT RAIN  58  57  97 E6        29.82F FOG
SAUK CENTRE    LGT RAIN  57  56  96 NE7       29.83F
PAYNESVILLE    DRIZZLE   55  56 100 NE8       29.82F
AITKIN         LGT RAIN  59  54  82 NE3       29.87F
PINE RIVER     DRIZZLE   57  54  88 E5        29.92F
BRAINERD       LGT RAIN  57  56  96 NE6       29.87F
STAPLES        DRIZZLE   57  55  94 NE5       29.87F
LONG PRAIRIE   DRIZZLE   55  54  94 NE9       29.85F
LITTLE FALLS   RAIN      55  54  94 NE5       29.84F
LITCHFIELD     CLOUDY    59  59 100 E8        29.80F
BUFFALO        DRIZZLE   58  55  92 NE9       29.81F
MAPLE LAKE     DRIZZLE   59  58  97 E12       29.82F
$$
MNZ037-044-045-052-053-250500-
   East Central Minnesota

CITY           SKY/WX    TMP DP  RH WIND       PRES   REMARKS
PRINCETON      RAIN      59  57  94 E7        29.83F
MORA           DRIZZLE   55  54  94 CALM      29.86F
CAMBRIDGE      DRIZZLE   61  52  72 E7        29.81F
RUSH CITY      CLOUDY    58  56  95 NE6       29.85F
MOOSE LAKE     LGT RAIN  57  55  94 E3        29.87F
HINCKLEY       RAIN      59  57  94 E8        29.86F
CLOQUET        RAIN      57  55  94 E6        29.90F
MCGREGOR       CLOUDY    57  55  94 NE5       29.89F
$$
MNZ071>073-080-081-089-090-097-098-250500-
   Southwest Minnesota

CITY           SKY/WX    TMP DP  RH WIND       PRES   REMARKS
MONTEVIDEO     DRIZZLE   57  57 100 E9        29.80F
GRANITE FALLS  DRIZZLE   58  57  97 NE8       29.81S
CANBY          CLOUDY    58  57  96 NE8       29.80F
MARSHALL       CLOUDY    57  54  88 E12       29.78S
REDWOOD FALLS  CLOUDY    59  57  93 E6        29.77F
OLIVIA         CLOUDY    55  54  94 NE9       29.78F FOG
PIPESTONE      CLOUDY    57  57 100 NE7       29.77S
WINDOM         LGT RAIN  59  57  94 CALM      29.77S VSB 3/4
WORTHINGTON    CLOUDY    59  55  88 E7        29.77S
JACKSON        FOG       59  59 100 CALM      29.77R VSB 1
TRACY          CLOUDY    58  58  99 NE7       29.78S FOG
SLAYTON        DRIZZLE   57  57 100 NE8       29.78F
$$
MNZ065>067-074>077-082>085-091>093-250500-
   South Central Minnesota

CITY           SKY/WX    TMP DP  RH WIND       PRES   REMARKS
MANKATO        CLOUDY    59  57  94 E12       29.76F
NEW ULM        DRIZZLE   57  57 100 E7        29.76F
ST JAMES       CLOUDY    61  61 100 NE7       29.76F FOG
FAIRMONT       CLOUDY    61  55  82 S3        29.75S
GLENCOE        DRIZZLE   59  59  99 E7        29.78F
FARIBAULT      LGT RAIN  59  57  94 E6        29.78F
OWATONNA       CLOUDY    61  59  94 E12       29.77F FOG
WASECA         DRIZZLE   59  57  94 E8        29.77F
ALBERT LEA     HVY RAIN  63  63 100 SE7       29.76F
$$
MNZ078>079-086>088-094>096-250500-
   Southeast Minnesota

CITY           SKY/WX    TMP DP  RH WIND       PRES   REMARKS
ROCHESTER      CLOUDY    59  58  96 SE12      29.81F FOG
RED WING       CLOUDY    57  57 100 E8        29.79F
STANTON        CLOUDY    59  57  92 E10       29.77F FOG
DODGE CENTER   CLOUDY    61  59  94 SE10      29.79F FOG
WINONA         CLOUDY    59  57  94 SE10      29.81F
AUSTIN         CLOUDY    61  59  94 SE10      29.77F FOG
PRESTON        LGT RAIN  58  57  96 E9        29.80F
$$
ABBREVIATIONS USED IN REMARKS
   TC - TEMPERATURES IN CELSIUS
  WCI - WIND CHILL INDEX
   HX - HEAT INDEX
  VSB - VISIBILITY
$$


USA.gov is the U.S. government's official web portal to all federal, state and local government web resources and services.